AD8BV Weather Reports


Display with metric or nautical units.
time (UTC)temp
F
wind
direction
speed
MPH
gust
MPH
rain 1hr
in
rain 24hr
in
rain mn
in
humidity
%
barometer
mb
20260508225214 65 282 0.0 0.0 0.00 0.00 0.00 38 1008.0
20260508224712 65 284 1.0 2.0 0.00 0.00 0.00 37 1008.1
20260508224209 65 265 0.0 0.0 0.00 0.00 0.00 36 1008.0
20260508223707 65 282 2.0 2.0 0.00 0.00 0.00 35 1008.0
20260508223204 64 344 4.0 6.0 0.00 0.00 0.00 33 1007.8
20260508222701 65 272 1.0 1.0 0.00 0.00 0.00 35 1008.4
20260508222159 65 272 1.0 2.0 0.00 0.00 0.00 34 1008.1
20260508221655 65 263 3.0 3.0 0.00 0.00 0.00 35 1008.0
20260508221150 65 260 2.0 3.0 0.00 0.00 0.00 34 1008.0
20260508220647 65 332 3.0 5.0 0.00 0.00 0.00 33 1008.1
20260508220144 65 319 3.0 3.0 0.00 0.00 0.00 34 1008.4
20260508215640 65 335 2.0 3.0 0.00 0.00 0.00 34 1008.4
20260508215137 66 13 2.0 3.0 0.00 0.00 0.00 37 1008.2
20260508214634 66 296 2.0 3.0 0.00 0.00 0.00 34 1008.4
20260508214131 66 291 3.0 5.0 0.00 0.00 0.00 34 1008.4
20260508213628 67 274 1.0 1.0 0.00 0.00 0.00 34 1008.6
20260508213124 66 266 1.0 1.0 0.00 0.00 0.00 41 1008.4
20260508212620 66 310 1.0 1.0 0.00 0.00 0.00 37 1008.9
20260508212117 67 203 2.0 3.0 0.00 0.00 0.00 37 1008.5
20260508211612 66 234 1.0 1.0 0.00 0.00 0.00 40 1008.7
20260508211109 66 193 3.0 5.0 0.00 0.00 0.00 39 1008.6
20260508210606 67 133 4.0 5.0 0.00 0.00 0.00 38 1008.7
20260508210103 66 271 2.0 2.0 0.00 0.00 0.00 37 1008.7
20260508205600 64 185 3.0 5.0 0.00 0.00 0.00 40 1008.9
20260508205057 67 263 1.0 2.0 0.00 0.00 0.00 40 1008.8
20260508204553 66 258 1.0 2.0 0.00 0.00 0.00 38 1008.7
20260508204049 66 282 0.0 1.0 0.00 0.00 0.00 39 1008.7
20260508203545 66 253 2.0 2.0 0.00 0.00 0.00 38 1009.1
20260508203041 65 317 1.0 2.0 0.00 0.00 0.00 40 1009.0
20260508202538 66 219 3.0 5.0 0.00 0.00 0.00 40 1009.0
20260508202035 64 258 1.0 1.0 0.00 0.00 0.00 39 1009.1
20260508201532 65 229 1.0 2.0 0.00 0.00 0.00 38 1009.1
20260508201028 67 268 1.0 1.0 0.00 0.00 0.00 39 1009.3
20260508200526 66 259 1.0 2.0 0.00 0.00 0.00 38 1009.3
20260508200021 67 290 0.0 1.0 0.00 0.00 0.00 39 1009.3
20260508195518 67 274 2.0 2.0 0.00 0.00 0.00 38 1009.4
20260508195014 66 167 2.0 2.0 0.00 0.00 0.00 38 1009.4
20260508194511 65 274 0.0 1.0 0.00 0.00 0.00 39 1009.5
20260508194009 65 11 4.0 6.0 0.00 0.00 0.00 37 1009.9
20260508193505 64 249 2.0 2.0 0.00 0.00 0.00 40 1009.9
20260508193002 66 218 2.0 2.0 0.00 0.00 0.00 38 1009.9
20260508192458 66 227 3.0 5.0 0.00 0.00 0.00 39 1010.0
20260508191955 64 163 2.0 3.0 0.00 0.00 0.00 41 1009.9
20260508191452 65 278 3.0 3.0 0.00 0.00 0.00 40 1010.0
20260508190949 65 288 0.0 1.0 0.00 0.00 0.00 41 1010.3
20260508190447 65 332 3.0 5.0 0.00 0.00 0.00 39 1010.2
20260508185942 64 222 2.0 2.0 0.00 0.00 0.00 45 1010.3
20260508185440 64 251 1.0 2.0 0.00 0.00 0.00 46 1010.3
20260508184937 64 261 2.0 2.0 0.00 0.00 0.00 42 1010.4
20260508184435 63 285 0.0 0.0 0.00 0.00 0.00 41 1010.5
20260508183931 64 248 2.0 3.0 0.00 0.00 0.00 40 1010.6
20260508183428 64 278 1.0 1.0 0.00 0.00 0.00 42 1010.7
20260508182923 62 277 0.0 0.0 0.00 0.00 0.00 43 1010.8
20260508182420 64 342 2.0 2.0 0.00 0.00 0.00 43 1010.8
20260508181915 63 296 0.0 1.0 0.00 0.00 0.00 45 1010.7
20260508181412 63 134 4.0 6.0 0.00 0.00 0.00 41 1010.8
20260508180910 62 189 1.0 1.0 0.00 0.00 0.00 43 1011.2
20260508180406 63 219 3.0 5.0 0.00 0.00 0.00 42 1011.1
20260508175902 63 204 2.0 2.0 0.00 0.00 0.00 40 1011.2
20260508175359 64 226 2.0 2.0 0.00 0.00 0.00 42 1010.8
20260508174857 64 199 3.0 3.0 0.00 0.00 0.00 43 1011.2
20260508174354 63 259 1.0 2.0 0.00 0.00 0.00 49 1011.2
20260508173851 61 267 2.0 2.0 0.00 0.00 0.00 45 1011.1
20260508173348 61 280 1.0 1.0 0.00 0.00 0.00 44 1011.3
20260508172843 62 269 0.0 0.0 0.00 0.00 0.00 42 1011.5
20260508172341 62 276 1.0 2.0 0.00 0.00 0.00 44 1011.4
20260508171837 61 292 1.0 2.0 0.00 0.00 0.00 52 1011.8
20260508171334 62 299 1.0 2.0 0.00 0.00 0.00 44 1011.9
20260508170831 62 250 0.0 0.0 0.00 0.00 0.00 42 1011.9
20260508170329 61 269 1.0 1.0 0.00 0.00 0.00 47 1011.7
20260508165825 61 281 1.0 1.0 0.00 0.00 0.00 45 1012.1
20260508165322 60 277 1.0 2.0 0.00 0.00 0.00 47 1012.3
20260508164818 61 331 2.0 2.0 0.00 0.00 0.00 45 1012.4
20260508164315 61 250 2.0 2.0 0.00 0.00 0.00 42 1012.2
20260508163813 61 223 4.0 5.0 0.00 0.00 0.00 45 1012.4
20260508163310 61 294 1.0 1.0 0.00 0.00 0.00 44 1012.6
20260508162806 60 259 1.0 1.0 0.00 0.00 0.00 45 1012.3
20260508162306 61 288 1.0 1.0 0.00 0.00 0.00 44 1012.6
20260508161801 61 321 3.0 5.0 0.00 0.00 0.00 42 1012.4
20260508161257 61 226 1.0 2.0 0.00 0.00 0.00 46 1012.6
20260508160755 60 137 4.0 6.0 0.00 0.00 0.00 41 1012.6
20260508160253 59 220 1.0 1.0 0.00 0.00 0.00 49 1012.4
20260508155749 60 293 1.0 1.0 0.00 0.00 0.00 45 1012.7
20260508155247 60 269 0.0 1.0 0.00 0.00 0.00 46 1012.3
20260508154743 59 180 1.0 2.0 0.00 0.00 0.00 49 1012.6
20260508154241 58 333 1.0 1.0 0.00 0.00 0.00 52 1012.8
20260508153737 59 308 2.0 2.0 0.00 0.00 0.00 49 1012.6
20260508153235 59 313 2.0 3.0 0.00 0.00 0.00 49 1012.8
20260508152731 58 280 0.0 1.0 0.00 0.00 0.00 54 1013.0
20260508152227 58 253 1.0 1.0 0.00 0.00 0.00 49 1013.0
20260508151723 57 286 2.0 2.0 0.00 0.00 0.00 53 1013.0
20260508151220 57 300 2.0 2.0 0.00 0.00 0.00 49 1013.0
20260508150717 57 281 0.0 1.0 0.00 0.00 0.00 53 1013.1
20260508150214 56 285 1.0 1.0 0.00 0.00 0.00 50 1013.2
20260508145709 56 345 3.0 3.0 0.00 0.00 0.00 48 1013.2
20260508145206 55 300 1.0 1.0 0.00 0.00 0.00 56 1013.2
20260508144703 55 228 1.0 1.0 0.00 0.00 0.00 60 1013.4
20260508144201 55 244 2.0 2.0 0.00 0.00 0.00 61 1013.3
20260508143658 54 244 2.0 2.0 0.00 0.00 0.00 62 1013.3
20260508143155 54 232 1.0 1.0 0.00 0.00 0.00 64 1013.2
20260508142651 54 316 2.0 2.0 0.00 0.00 0.00 64 1013.5
20260508142148 54 248 1.0 1.0 0.00 0.00 0.00 65 1013.4
20260508141644 53 300 0.0 0.0 0.00 0.00 0.00 65 1013.4
20260508141142 53 217 2.0 2.0 0.00 0.00 0.00 68 1013.3
20260508140640 53 195 2.0 2.0 0.00 0.00 0.00 68 1013.6
20260508140136 52 270 1.0 1.0 0.00 0.00 0.00 71 1013.6
20260508135632 52 304 1.0 1.0 0.00 0.00 0.00 70 1013.6
20260508135128 52 282 0.0 1.0 0.00 0.00 0.00 72 1013.5
20260508134625 52 313 3.0 3.0 0.00 0.00 0.00 74 1013.6
20260508134122 51 262 0.0 1.0 0.00 0.00 0.00 79 1013.7
20260508133618 51 306 1.0 2.0 0.00 0.00 0.00 78 1013.7
20260508133116 51 275 0.0 0.0 0.00 0.00 0.00 80 1013.6
20260508132614 50 269 0.0 1.0 0.00 0.00 0.00 80 1013.6
20260508132110 50 281 0.0 1.0 0.00 0.00 0.00 81 1013.8
20260508131606 50 272 0.0 0.0 0.00 0.00 0.00 83 1013.9
20260508131103 49 280 0.0 1.0 0.00 0.00 0.00 83 1014.0
20260508130559 49 263 1.0 1.0 0.00 0.00 0.00 84 1013.7
20260508130057 48 253 0.0 1.0 0.00 0.00 0.00 84 1013.7
20260508125551 48 276 0.0 1.0 0.00 0.00 0.00 86 1013.6
20260508125050 48 267 0.0 0.0 0.00 0.00 0.00 89 1013.7
20260508124548 47 279 0.0 1.0 0.00 0.00 0.00 90 1013.8
20260508124044 46 253 1.0 1.0 0.00 0.00 0.00 92 1013.8
20260508123543 46 260 0.0 1.0 0.00 0.00 0.00 93 1013.9
20260508123039 45 272 0.0 0.0 0.00 0.00 0.00 94 1013.8
20260508122536 44 263 0.0 1.0 0.00 0.00 0.00 95 1013.8
20260508122033 44 265 0.0 0.0 0.00 0.00 0.00 96 1013.7
20260508121531 43 276 0.0 0.0 0.00 0.00 0.00 96 1013.6
20260508121029 42 276 0.0 0.0 0.00 0.00 0.00 97 1013.6
20260508120526 42 271 0.0 0.0 0.00 0.00 0.00 97 1013.6
20260508120024 42 272 0.0 0.0 0.00 0.00 0.00 97 1013.6
20260508115521 42 272 0.0 0.0 0.00 0.00 0.00 97 1013.4
20260508115018 39 272 0.0 0.0 0.00 0.00 0.00 97 1013.2
20260508114515 39 271 0.0 0.0 0.00 0.00 0.00 97 1013.4
20260508114011 37 272 0.0 0.0 0.00 0.00 0.00 97 1013.2
20260508113509 37 272 0.0 0.0 0.00 0.00 0.00 97 1013.1
20260508113006 37 272 0.0 0.0 0.00 0.00 0.00 97 1013.3
20260508112503 36 271 0.0 0.0 0.00 0.00 0.00 97 1013.1
20260508111959 36 272 0.0 0.0 0.00 0.00 0.00 97 1013.0
20260508111456 35 272 0.0 0.0 0.00 0.00 0.00 97 1013.0
20260508110953 34 268 0.0 0.0 0.00 0.00 0.00 97 1013.0
20260508110451 34 268 0.0 0.0 0.00 0.00 0.00 97 1013.0
20260508105950 34 271 0.0 0.0 0.00 0.00 0.00 97 1012.8
20260508105447 33 271 0.0 0.0 0.00 0.00 0.00 97 1012.8
20260508104944 33 272 0.0 0.0 0.00 0.00 0.00 97 1012.8
20260508104442 33 272 0.0 0.0 0.00 0.00 0.00 97 1012.6
20260508103938 33 273 0.0 0.0 0.00 0.00 0.00 96 1012.6
20260508103436 33 277 0.0 0.0 0.00 0.00 0.00 96 1012.8
20260508102932 34 277 1.0 3.0 0.00 0.00 0.00 96 1012.7
20260508102431 34 271 0.0 0.0 0.00 0.00 0.00 96 1012.8
20260508101928 34 272 0.0 0.0 0.00 0.00 0.00 96 1012.6
20260508101425 34 272 0.0 0.0 0.00 0.00 0.00 96 1012.9
20260508100922 34 271 0.0 0.0 0.00 0.00 0.00 96 1012.8
20260508100421 34 271 0.0 0.0 0.00 0.00 0.00 96 1012.7
20260508095917 35 271 0.0 0.0 0.00 0.00 0.00 96 1012.8
20260508095415 35 271 0.0 0.0 0.00 0.00 0.00 96 1013.0
20260508094911 34 271 0.0 0.0 0.00 0.00 0.00 96 1012.8
20260508094408 35 271 0.0 0.0 0.00 0.00 0.00 96 1012.7
20260508093905 35 271 0.0 0.0 0.00 0.00 0.00 96 1012.8
20260508093403 35 271 0.0 0.0 0.00 0.00 0.00 96 1012.7
20260508092900 35 271 0.0 0.0 0.00 0.00 0.00 96 1012.5
20260508092357 35 271 0.0 0.0 0.00 0.00 0.00 96 1012.6
20260508091856 35 273 0.0 0.0 0.00 0.00 0.00 96 1012.8
20260508091352 35 273 0.0 0.0 0.00 0.00 0.00 96 1012.7
20260508090849 35 271 0.0 0.0 0.00 0.00 0.00 96 1013.0
20260508090348 36 271 0.0 0.0 0.00 0.00 0.00 96 1012.9
20260508085843 36 272 0.0 0.0 0.00 0.00 0.00 96 1013.0
20260508085340 36 272 0.0 0.0 0.00 0.00 0.00 96 1012.7
20260508084837 36 268 0.0 0.0 0.00 0.00 0.00 96 1012.7
20260508084334 36 268 0.0 0.0 0.00 0.00 0.00 96 1012.7
20260508083831 36 268 0.0 0.0 0.00 0.00 0.00 95 1012.8
20260508083329 36 268 0.0 0.0 0.00 0.00 0.00 95 1012.7
20260508082828 36 268 0.0 0.0 0.00 0.00 0.00 95 1012.6
20260508082326 37 268 0.0 0.0 0.00 0.00 0.00 95 1012.7
20260508081823 37 268 0.0 0.0 0.00 0.00 0.00 95 1012.7
20260508081320 37 268 0.0 0.0 0.00 0.00 0.00 95 1013.0
20260508080817 37 268 0.0 0.0 0.00 0.00 0.00 95 1012.9
20260508080315 37 268 0.0 0.0 0.00 0.00 0.00 95 1013.0
20260508075811 37 268 0.0 0.0 0.00 0.00 0.00 95 1012.9
20260508075309 37 268 0.0 0.0 0.00 0.00 0.00 95 1013.0
20260508074806 38 268 0.0 0.0 0.00 0.00 0.00 95 1012.9
20260508074303 38 268 0.0 0.0 0.00 0.00 0.00 95 1012.9
20260508073800 38 269 0.0 0.0 0.00 0.00 0.00 95 1012.9
20260508073258 38 268 0.0 0.0 0.00 0.00 0.00 95 1012.8
20260508072754 38 268 0.0 0.0 0.00 0.00 0.00 95 1012.9
20260508072251 39 269 0.0 0.0 0.00 0.00 0.00 95 1013.2
20260508071748 39 265 0.0 0.0 0.00 0.00 0.00 95 1013.0
20260508071247 39 269 0.0 0.0 0.00 0.00 0.00 95 1013.1
20260508070743 39 271 0.0 0.0 0.00 0.00 0.00 95 1013.5
20260508070242 39 271 0.0 0.0 0.00 0.00 0.00 95 1013.6
20260508065739 39 271 0.0 0.0 0.00 0.00 0.00 94 1013.4
20260508065237 38 272 0.0 0.0 0.00 0.00 0.00 94 1013.5
20260508064734 38 271 0.0 0.0 0.00 0.00 0.00 94 1013.7
20260508064233 38 271 0.0 0.0 0.00 0.00 0.00 94 1013.6
20260508063729 38 271 0.0 0.0 0.00 0.00 0.00 94 1013.4
20260508063227 38 271 0.0 0.0 0.00 0.00 0.00 94 1013.5
20260508062724 38 271 0.0 0.0 0.00 0.00 0.00 94 1013.6
20260508062222 39 271 0.0 0.0 0.00 0.00 0.00 94 1013.6
20260508061718 39 271 0.0 0.0 0.00 0.00 0.00 94 1013.4
20260508061216 39 271 0.0 0.0 0.00 0.00 0.00 93 1013.4
20260508060712 39 271 0.0 0.0 0.00 0.00 0.00 93 1013.7
20260508060210 40 271 0.0 0.0 0.00 0.00 0.00 93 1013.5
20260508055705 40 271 0.0 0.0 0.00 0.00 0.00 93 1013.6
20260508055202 40 271 0.0 0.0 0.00 0.00 0.00 93 1013.7
20260508054659 40 271 0.0 0.0 0.00 0.00 0.00 93 1013.7
20260508054156 40 271 0.0 0.0 0.00 0.00 0.00 93 1013.7
20260508053653 40 271 0.0 0.0 0.00 0.00 0.00 93 1013.8
20260508053151 40 271 0.0 0.0 0.00 0.00 0.00 93 1013.8
20260508052648 40 271 0.0 0.0 0.00 0.00 0.00 93 1013.6
20260508052145 40 271 0.0 0.0 0.00 0.00 0.00 93 1013.3
20260508051641 40 271 0.0 0.0 0.00 0.00 0.00 93 1013.6
20260508051137 40 271 0.0 0.0 0.00 0.00 0.00 93 1013.7
20260508050633 40 271 0.0 0.0 0.00 0.00 0.00 93 1013.5
20260508050131 40 271 0.0 0.0 0.00 0.00 0.00 93 1013.4
20260508045626 40 271 0.0 0.0 0.00 0.00 0.00 93 1013.5
20260508045125 40 271 0.0 0.0 0.00 0.00 0.00 92 1013.4
20260508044621 40 271 0.0 0.0 0.00 0.00 0.00 92 1013.4
20260508044117 40 271 0.0 0.0 0.00 0.00 0.00 92 1013.5
20260508043614 41 271 0.0 0.0 0.00 0.00 0.00 92 1013.4
20260508043112 41 271 0.0 0.0 0.00 0.00 0.00 91 1013.5
20260508042608 41 271 0.0 0.0 0.00 0.00 0.00 91 1013.2
20260508042106 41 271 0.0 0.0 0.00 0.00 0.00 91 1013.6
20260508041602 41 271 0.0 0.0 0.00 0.00 0.00 90 1013.4
20260508041058 42 271 0.0 0.0 0.00 0.00 0.00 90 1013.4
20260508040555 42 271 0.0 0.0 0.00 0.00 0.00 89 1013.3
20260508040053 42 271 0.0 0.0 0.00 0.00 0.00 88 1013.3
20260508035549 43 271 0.0 0.0 0.00 0.00 0.00 87 1013.1
20260508035047 43 271 0.0 0.0 0.00 0.00 0.00 86 1013.3
20260508034544 44 272 0.0 0.0 0.00 0.00 0.00 86 1013.0
20260508034041 44 273 0.0 0.0 0.00 0.00 0.00 86 1013.2
20260508033538 44 268 0.0 0.0 0.00 0.00 0.00 85 1013.4
20260508033037 44 268 0.0 0.0 0.00 0.00 0.00 85 1013.3
20260508032532 44 268 0.0 0.0 0.00 0.00 0.00 85 1013.2
20260508032031 44 268 0.0 0.0 0.00 0.00 0.00 84 1013.2
20260508031527 45 268 0.0 0.0 0.00 0.00 0.00 83 1013.3
20260508031023 45 282 1.0 1.0 0.00 0.00 0.00 83 1013.3
20260508030520 45 272 0.0 0.0 0.00 0.00 0.00 83 1013.3
20260508030018 45 271 0.0 0.0 0.00 0.00 0.00 82 1013.4
20260508025513 45 263 0.0 0.0 0.00 0.00 0.00 81 1013.3
20260508025011 45 252 1.0 1.0 0.00 0.00 0.00 82 1013.4
20260508024507 45 263 0.0 0.0 0.00 0.00 0.00 81 1013.3
20260508024004 44 265 0.0 0.0 0.00 0.00 0.00 84 1013.2
20260508023500 43 267 0.0 0.0 0.00 0.00 0.00 86 1013.2
20260508022958 43 271 0.0 0.0 0.00 0.00 0.00 86 1013.4
20260508022453 43 269 0.0 0.0 0.00 0.00 0.00 86 1013.4
20260508021950 43 268 0.0 0.0 0.00 0.00 0.00 85 1013.1
20260508021447 43 268 0.0 0.0 0.00 0.00 0.00 83 1013.2
20260508020942 43 268 0.0 0.0 0.00 0.00 0.00 83 1012.9
20260508020440 43 268 0.0 0.0 0.00 0.00 0.00 82 1013.2
20260508015937 44 340 0.0 0.0 0.00 0.00 0.00 81 1013.2
20260508015435 44 267 0.0 0.0 0.00 0.00 0.00 80 1012.8
20260508014931 45 269 0.0 0.0 0.00 0.00 0.00 78 1013.0
20260508014428 45 271 0.0 0.0 0.00 0.00 0.00 77 1013.2
20260508013924 46 271 0.0 0.0 0.00 0.00 0.00 76 1012.8
20260508013420 46 272 0.0 0.0 0.00 0.00 0.00 74 1013.0
20260508012918 47 272 0.0 0.0 0.00 0.00 0.00 74 1012.9
20260508012415 48 265 0.0 0.0 0.00 0.00 0.00 74 1012.8
20260508011912 48 258 1.0 1.0 0.00 0.00 0.00 72 1012.8
20260508011410 49 265 0.0 0.0 0.00 0.00 0.00 70 1012.9
20260508010907 49 254 1.0 1.0 0.00 0.00 0.00 69 1012.7
20260508010404 49 270 0.0 0.0 0.00 0.00 0.00 69 1013.1
20260508005901 50 270 0.0 0.0 0.00 0.00 0.00 67 1013.0
20260508005358 50 265 0.0 0.0 0.00 0.00 0.00 66 1013.2
20260508004854 50 288 1.0 1.0 0.00 0.00 0.00 65 1013.3
20260508004350 50 277 0.0 0.0 0.00 0.00 0.00 66 1013.3
20260508003847 51 263 0.0 0.0 0.00 0.00 0.00 64 1013.1
20260508003344 51 262 0.0 1.0 0.00 0.00 0.00 61 1012.9
20260508002842 51 194 1.0 2.0 0.00 0.00 0.00 59 1013.1
20260508002338 51 257 0.0 1.0 0.00 0.00 0.00 59 1012.9
20260508001834 52 354 3.0 5.0 0.00 0.00 0.00 56 1012.9
20260508001330 53 262 1.0 2.0 0.00 0.00 0.00 55 1012.4
20260508000827 53 318 2.0 3.0 0.00 0.00 0.00 53 1012.7
20260508000323 53 258 1.0 1.0 0.00 0.00 0.00 52 1012.7
20260507235820 53 294 1.0 1.0 0.00 0.00 0.00 51 1012.6
20260507235317 53 269 2.0 2.0 0.00 0.00 0.00 50 1012.7
20260507234814 53 269 0.0 0.0 0.00 0.00 0.00 51 1012.5
20260507234311 53 267 0.0 0.0 0.00 0.00 0.00 51 1012.4
20260507233807 53 270 1.0 1.0 0.00 0.00 0.00 50 1012.5
20260507233305 53 271 0.0 0.0 0.00 0.00 0.00 51 1012.5
20260507232803 54 271 0.0 0.0 0.00 0.00 0.00 50 1012.6
20260507232259 54 262 1.0 1.0 0.00 0.00 0.00 46 1012.5
20260507231756 54 276 0.0 1.0 0.00 0.00 0.00 48 1012.6
20260507231253 54 283 1.0 1.0 0.00 0.00 0.00 49 1012.6
20260507230749 54 346 3.0 3.0 0.00 0.00 0.00 48 1012.8
20260507230247 54 276 0.0 1.0 0.00 0.00 0.00 48 1012.5
20260507225746 55 326 2.0 2.0 0.00 0.00 0.00 45 1012.7